This demonstration page uses our WeatherBlox Daily Observations layout. Learn more.

Left ArrowRight Arrow

Hourly Observations for September 2, 2015

Temp ( °F °C ) Dew Point ( °F °C ) Humidity (%) Winds ( mph kmh ) Pressure ( in mb ) Visibility ( mi km ) Precip ( " mm )
12:52 am 00:52 Partly Cloudy 78 25.6 67 19.4 69 69 SSE 16 26 29.88 1012 10 16 0.00 0.00
1:52 am 01:52 Partly Cloudy 76 24.4 68 20 77 77 SSE 15 24 29.87 1011 10 16 0.00 0.00
2:52 am 02:52 Partly Cloudy 76 24.4 68 20 77 77 S 16 26 29.86 1011 10 16 0.00 0.00
3:52 am 03:52 Mostly Cloudy 76 24.4 68 20 77 77 SSE 14 22 29.86 1011 10 16 0.00 0.00
4:52 am 04:52 Partly Cloudy 74 23.3 69 20.6 85 85 SSE 14 22 29.87 1012 10 16 0.00 0.00
5:52 am 05:52 Partly Cloudy 74 23.3 69 20.6 85 85 S 9 15 29.88 1012 10 16 0.00 0.00
6:52 am 06:52 Partly Cloudy 73 22.8 68 20 84 84 SSE 14 22 29.88 1012 10 16 0.00 0.00
7:52 am 07:52 Mostly Sunny 74 23.3 68 20 82 82 SSE 14 22 29.89 1012 10 16 0.00 0.00
8:52 am 08:52 Mostly Sunny 77 25 68 20 74 74 SSE 17 28 29.89 1012 10 16 0.00 0.00
9:52 am 09:52 Mostly Sunny 79 26.1 69 20.6 72 72 S 17 28 29.90 1012 10 16 0.00 0.00
10:52 am 10:52 Mostly Sunny 81 27.2 69 20.6 67 67 S 21 33 29.89 1012 10 16 0.00 0.00
11:52 am 11:52 Mostly Sunny 83 28.3 70 21.1 65 65 S 18 30 29.88 1012 10 16 0.00 0.00
12:52 pm 12:52 Mostly Sunny 84 28.9 70 21.1 63 63 SSE 21 33 29.88 1012 10 16 0.00 0.00
1:52 pm 13:52 Partly Cloudy 86 30 70 21.1 59 59 S 17 28 29.85 1011 10 16 0.00 0.00
2:52 pm 14:52 Partly Cloudy 88 31.1 69 20.6 54 54 S 20 31 29.83 1010 10 16 0.00 0.00
3:52 pm 15:52 Partly Cloudy 89 31.7 69 20.6 52 52 S 18 30 29.82 1010 10 16 0.00 0.00
4:52 pm 16:52 Partly Cloudy 90 32.2 70 21.1 52 52 S 17 28 29.80 1009 10 16 0.00 0.00
5:52 pm 17:52 Mostly Sunny 90 32.2 70 21.1 52 52 S 18 30 29.80 1009 10 16 0.00 0.00
6:52 pm 18:52 Mostly Cloudy 88 31.1 71 21.7 57 57 SSE 15 24 29.80 1009 10 16 0.00 0.00
7:52 pm 19:52 Mostly Cloudy 84 28.9 72 22.2 67 67 SSE 15 24 29.80 1009 10 16 0.00 0.00
8:52 pm 20:52 Mostly Cloudy 82 27.8 72 22.2 72 72 SSE 10 17 29.82 1010 10 16 0.00 0.00
9:52 pm 21:52 Mostly Clear 82 27.8 71 21.7 69 69 S 13 20 29.84 1010 10 16 0.00 0.00
10:52 pm 22:52 Mostly Clear 81 27.2 69 20.6 67 67 S 14 22 29.84 1011 10 16 0.00 0.00
11:52 pm 23:52 Clear 79 26.1 70 21.1 74 74 S 13 20 29.84 1011 10 16 0.00 0.00

Powered by AerisWeather